Location: Cruquius
(52.3348°N, 4.6319°E)
Time: 05:49:11
(UTC+00:00)

NOSS 3-3 (C) - Pass Details

Date: 07 October 2021
Orbit: 801 x 1411 km, 63.4° (Epoch: 05 October)

Event Time Altitude Azimuth Distance (km) Brightness Sun altitude
Rises 18:24:54 0° 312° (NW) 3,997 8.2 -13.1°
Reaches altitude 10° 18:27:47 10° 303° (WNW) 3,123 7.7 -13.5°
Maximum altitude 18:34:18 32° 244° (WSW) 2,059 6.3 -14.5°
Drops below altitude 10° 18:41:26 10° 186° (S) 3,428 6.8 -15.6°
Sets 18:44:46 0° 177° (S) 4,440 7.3 -16.1°
